This is the latest recevied weather packets stored in our database for station/object KD4IZ-13. If no packets are shown the sender has not sent any weather packets the latest 10 day(s).
| Time | Temp. | Humidity | Pressure | Rain* | Wind** | Luminosity | Snow |
|---|---|---|---|---|---|---|---|
| 1778174026 | 16.67° C | 49% | 1011.7 hPa | 0 mm | - | 706 W/m² | - |
| 1778173724 | 15.56° C | 54% | 1012.1 hPa | 0 mm | - | 707 W/m² | - |
| 1778173420 | 15.56° C | 52% | 1012.2 hPa | 0 mm | - | 704 W/m² | - |
| 1778173116 | 15.56° C | 50% | 1012 hPa | 0 mm | - | 709 W/m² | - |
| 1778172812 | 15° C | 51% | 1012.3 hPa | 0 mm | - | 714 W/m² | - |
| 1778172508 | 15.56° C | 51% | 1012.4 hPa | 0 mm | - | 719 W/m² | - |
| 1778172205 | 15° C | 48% | 1012.5 hPa | 0 mm | - | 704 W/m² | - |
| 1778171903 | 15° C | 51% | 1012.7 hPa | 0 mm | - | 709 W/m² | - |
| 1778171600 | 15° C | 51% | 1012.5 hPa | 0 mm | - | 714 W/m² | - |
| 1778171296 | 15° C | 52% | 1012.8 hPa | 0 mm | - | 754 W/m² | - |
| 1778170992 | 15° C | 53% | 1012.8 hPa | 0 mm | - | 714 W/m² | - |
| 1778170689 | 14.44° C | 54% | 1012.9 hPa | 0 mm | - | 720 W/m² | - |
| 1778170386 | 15° C | 54% | 1013.1 hPa | 0 mm | - | 718 W/m² | - |
| 1778170082 | 15° C | 52% | 1012.9 hPa | 0 mm | - | 721 W/m² | - |
| 1778169778 | 14.44° C | 59% | 1013 hPa | 0 mm | - | 743 W/m² | - |
| 1778169474 | 14.44° C | 51% | 1013.1 hPa | 0 mm | - | 747 W/m² | - |
| 1778169170 | 14.44° C | 53% | 1013 hPa | 0 mm | - | 727 W/m² | - |
| 1778168867 | 14.44° C | 55% | 1013.4 hPa | 0 mm | - | 733 W/m² | - |
| 1778168565 | 15° C | 53% | 1013.2 hPa | 0 mm | - | 724 W/m² | - |
| 1778168261 | 15° C | 50% | 1013.1 hPa | 0 mm | - | 736 W/m² | - |
| 1778167957 | 14.44° C | 56% | 1013.4 hPa | 0 mm | - | 765 W/m² | - |
| 1778167654 | 14.44° C | 50% | 1013.2 hPa | 0 mm | - | 780 W/m² | - |
| 1778167350 | 14.44° C | 54% | 1013.2 hPa | 0 mm | - | 782 W/m² | - |
| 1778167046 | 13.89° C | 50% | 1013.6 hPa | 0 mm | - | 820 W/m² | - |
| 1778166743 | 14.44° C | 50% | 1013.7 hPa | 0 mm | - | 811 W/m² | - |
* Rain latest hour (hover to see other rain measurements)
** Current wind speed in m/s (hover to see current wind gust speed)